Wetbulb
53.32 53.96 54.58 54.35 54.27 54.45 54.31 53.94 53.76 53.34 53.14 53.03 52.91 53.15 53.29 53.47 53.63 52.03 47.64 47.93 47.49 45.03 44.83 47.05 47.50 44.60 43.63 43.92 41.56 44.36 44.00 44.20 45.73 42.60 40.54 40.84 40.90 43.11 41.33 42.53 41.03 42.48 39.31 38.21 37.95 36.83 38.29 52.91 53.53 48.19 49.45 56.30 58.80 59.10
54.06 54.08 54.34 54.20 54.15 54.31 54.25 53.80 53.78 53.28 53.05 52.66 52.71 53.24 53.64 53.61 53.24 52.68 47.73 49.30 50.29 45.23 43.08 47.15 48.49 50.22 49.61 49.06 44.46 43.64 41.16 41.50 43.73 41.55 42.89 43.21 43.18 44.25 42.58 41.91 44.44 41.28 43.11 42.44 42.34 41.94 46.95 51.46 52.38 54.78 57.77 57.72 57.93 58.83
53.75 53.83 54.24 54.22 54.14 54.12 53.87 53.64 53.70 53.65 53.05 52.50 52.60 52.74 53.16 53.77 53.67 52.28 49.12 49.80 48.41 45.41 44.66 43.23 44.82 49.27 50.71 51.03 52.51 42.65 42.77 45.10 43.24 46.14 43.14 43.79 43.89 45.48 41.28 42.96 43.52 46.14 47.37 46.51 47.18 49.26 50.49 52.83 54.69 59.15 59.58 58.80 59.43 59.54
53.85 53.87 53.91 54.00 53.82 53.76 53.79 53.71 53.58 53.55 53.16 52.93 52.89 52.79 52.89 53.06 52.96 52.73 48.71 49.50 48.69 45.81 40.89 42.26 50.33 48.39 51.19 50.52 50.21 51.30 49.30 45.64 44.08 44.38 41.63 41.97 43.01 46.45 43.30 44.62 43.72 46.10 45.80 45.16 45.41 48.38 52.25 54.24 55.89 58.76 60.10 60.71 60.50 60.74
53.59 53.28 53.19 53.37 53.61 53.51 53.44 53.11 53.21 53.19 52.97 52.33 52.50 52.39 52.08 52.38 52.50 51.52 50.23 49.45 49.62 45.41 41.69 43.04 47.87 50.04 49.08 49.18 49.77 50.19 49.03 44.40 43.15 42.03 42.16 42.45 44.37 44.53 45.18 45.26 43.29 45.20 44.38 43.88 43.80 47.78 48.98 51.78 55.21 59.58 60.71 60.29 60.67 60.36
53.64 53.21 53.10 53.21 53.29 53.37 53.16 52.92 53.15 52.96 52.16 52.81 52.68 52.52 52.62 52.34 52.19 48.85 44.03 48.93 50.38 49.74 44.40 39.91 47.88 48.83 50.84 50.83 50.04 48.96 48.36 43.44 43.33 42.15 42.25 44.35 45.92 44.72 42.95 43.96 47.71 47.95 49.39 48.88 49.49 50.14 51.67 53.97 58.35 58.81 59.71 60.76 61.63 61.14
53.52 53.37 53.12 53.12 53.10 53.08 52.90 53.04 53.04 52.70 52.22 52.48 52.18 51.85 51.81 51.34 50.06 45.48 43.14 49.12 51.31 50.72 45.85 42.53 43.65 49.09 53.78 50.96 48.68 47.30 47.67 45.29 44.87 44.19 42.48 42.23 42.97 44.62 41.82 41.70 47.71 48.83 48.91 50.54 51.56 51.78 52.61 55.36 56.13 58.46 59.41 61.58 60.40 61.53
53.47 53.30 53.13 53.08 53.14 52.94 53.03 52.80 52.78 52.31 52.34 52.12 51.71 51.36 51.57 51.26 50.55 46.98 48.76 50.80 50.92 48.59 49.32 43.56 43.18 48.37 54.20 47.94 46.93 48.69 45.10 44.59 44.60 43.94 44.25 42.27 42.21 42.58 40.89 45.44 49.07 49.47 52.40 50.99 50.82 51.37 51.01 52.70 55.35 57.54 58.43 59.96 58.67 57.82
53.00 53.00 53.16 52.89 52.89 52.95 52.86 52.76 52.84 52.01 51.81 51.46 51.47 51.75 48.46 47.50 46.02 50.18 54.37 54.43 51.41 48.95 44.82 46.80 44.88 44.45 54.12 50.46 49.80 48.45 45.85 42.81 45.34 43.09 42.98 42.59 38.96 38.32 43.22 46.63 48.24 50.17 51.39 51.07 51.13 54.72 55.29 55.18 55.31 55.92 57.04 57.20 55.98 55.38
52.54 52.84 53.06 52.81 52.97 52.97 52.65 52.95 52.43 51.65 51.03 50.97 46.65 45.35 48.20 49.33 51.98 52.36 49.73 48.17 47.52 48.11 46.49 42.35 47.02 44.91 49.79 49.92 49.21 49.14 48.22 44.73 41.70 43.53 45.26 42.73 41.05 44.51 45.94 47.39 49.93 50.85 51.28 52.43 52.85 52.05 53.34 54.08 55.03 55.06 55.25 56.55 57.07 56.44
52.73 52.91 53.17 52.89 52.87 52.89 52.56 52.64 52.18 51.23 48.78 42.58 39.01 42.45 44.47 49.79 50.03 49.00 46.70 45.42 46.05 44.65 46.64 46.54 47.13 44.96 51.20 46.64 47.67 51.31 47.70 48.44 43.14 45.51 44.31 40.98 40.58 46.96 51.36 50.53 49.85 51.45 52.47 52.49 53.89 54.31 53.78 55.26 55.74 55.36 55.58 56.34 56.29 56.51
52.40 52.68 52.81 52.63 52.53 52.65 52.36 52.06 51.71 47.94 42.88 43.21 44.09 47.66 47.12 45.36 47.25 45.31 44.55 45.99 44.99 43.15 47.57 47.37 48.60 47.51 49.44 52.66 49.93 50.36 47.42 46.93 43.10 48.80 45.66 43.75 48.48 51.24 52.92 54.83 54.91 55.59 57.30 56.95 57.46 56.69 56.62 56.64 56.42 55.65 55.24 55.04 55.63 55.77
52.20 52.22 52.41 52.15 52.08 52.37 52.11 51.87 51.67 51.29 49.11 47.43 46.10 43.71 43.46 44.75 37.97 41.35 39.31 42.19 44.48 48.86 49.95 50.18 48.40 49.86 47.74 52.49 50.17 48.49 45.69 44.19 48.71 45.06 43.93 48.33 51.35 53.24 52.77 55.05 55.19 56.50 57.23 57.16 56.69 56.81 56.64 55.83 56.24 55.79 55.00 54.90 56.75 57.08
51.90 51.96 51.94 51.82 51.98 51.78 51.76 51.71 51.62 49.12 43.99 43.67 42.75 35.43 41.04 40.67 42.17 44.45 44.79 45.92 49.26 49.70 48.83 49.09 49.07 49.00 50.64 47.75 49.64 45.67 47.00 48.10 43.39 42.85 43.15 49.15 51.71 53.88 53.86 54.77 55.05 54.91 55.44 55.06 54.95 55.31 55.19 54.86 54.23 54.82 54.85 54.83 54.73 54.21
51.74 51.76 51.74 51.67 51.77 52.03 51.76 51.43 51.02 47.50 43.18 42.15 42.49 36.48 41.19 45.20 47.90 48.71 49.39 49.53 51.14 51.49 48.75 47.19 48.18 49.29 47.77 47.71 48.27 47.33 45.23 43.33 43.68 42.99 47.31 50.68 52.44 53.87 53.20 53.24 53.24 53.04 53.15 52.75 53.18 53.29 53.57 53.65 52.97 52.75 53.80 54.27 54.63 54.59
51.82 51.32 50.55 51.51 51.66 51.05 50.54 49.74 46.35 47.03 46.12 43.62 42.41 40.05 43.04 43.94 45.04 47.05 47.84 47.87 51.46 49.84 50.05 49.92 47.30 45.91 44.72 44.06 45.30 45.26 43.85 42.37 44.90 48.73 52.43 53.64 53.57 54.40 54.23 54.37 53.88 52.66 52.22 52.63 52.93 52.85 52.54 52.38 52.34 51.78 51.96 52.09 51.73 52.55
50.93 48.41 51.47 50.59 50.35 49.97 50.00 46.46 46.90 44.74 42.97 42.23 41.06 43.75 41.78 42.57 43.02 45.85 48.46 48.50 51.45 48.85 45.99 47.05 44.27 43.88 48.02 43.54 43.87 46.35 44.31 46.51 49.43 51.57 52.55 54.01 53.66 53.27 53.99 53.90 52.48 52.60 52.28 52.16 52.00 51.85 51.91 52.41 51.96 50.47 49.61 50.19 50.91 51.45
48.33 50.37 50.90 50.49 49.71 48.40 47.56 47.15 45.57 44.41 41.44 42.81 37.16 38.59 41.88 45.32 45.41 45.76 46.33 47.85 46.41 45.71 46.51 45.54 48.39 44.24 43.15 42.73 44.86 47.28 48.13 49.88 50.88 51.57 53.78 55.45 55.34 55.20 55.34 53.06 52.41 52.26 51.69 51.76 52.40 52.40 52.20 51.64 50.44 49.96 49.11 49.89 50.90 51.27
49.74 50.14 50.75 50.68 47.89 44.41 43.04 45.61 46.16 40.14 41.59 42.29 40.28 40.40 42.16 43.53 44.65 46.33 47.34 47.27 46.24 46.29 45.56 44.85 43.14 41.96 44.03 47.88 48.17 49.44 51.03 52.20 51.76 52.51 54.35 55.62 55.51 54.25 53.79 53.16 52.76 51.60 51.35 51.42 51.22 51.63 52.18 51.49 51.16 51.18 50.75 51.03 50.53 50.47
50.55 50.70 50.54 50.42 49.43 44.57 42.58 42.76 45.60 41.56 36.50 38.15 39.62 40.89 41.91 41.89 43.13 44.26 44.85 44.92 44.10 43.49 42.09 42.34 41.86 46.77 47.70 49.59 50.97 50.95 51.28 51.91 53.39 52.57 52.57 53.78 55.21 55.08 53.98 53.55 52.95 51.44 51.29 51.12 51.70 50.06 52.00 52.20 51.68 52.37 52.61 51.92 50.03 49.26
48.37 48.18 50.75 49.05 46.25 44.91 43.21 39.57 39.68 42.21 38.95 37.55 40.24 40.03 39.57 41.82 42.04 41.86 42.10 44.50 43.01 42.12 41.52 43.66 45.03 47.48 49.96 50.19 51.83 52.89 52.18 51.36 51.63 52.29 51.92 51.10 53.02 54.46 54.62 54.70 54.23 53.16 51.87 50.70 50.62 51.05 50.67 52.08 51.25 52.63 52.88 52.09 52.52 51.63
46.46 50.35 45.30 47.98 45.11 44.61 42.65 39.99 37.54 39.01 38.17 38.59 39.32 40.66 39.79 39.66 40.23 40.28 43.18 41.40 40.65 42.27 44.22 44.17 44.12 44.26 44.88 46.16 49.91 52.04 52.77 52.45 51.81 50.80 48.96 50.37 51.78 53.39 52.77 53.52 53.98 53.33 53.25 52.96 52.65 51.66 51.74 52.01 52.42 52.64 52.40 52.73 50.46 50.99
47.57 47.45 45.07 44.99 42.82 38.00 34.39 40.07 37.26 39.01 37.01 38.07 40.42 40.86 42.42 43.29 45.44 45.37 43.34 43.66 44.33 46.57 45.61 45.31 45.70 47.10 47.47 49.00 50.65 51.91 51.52 50.54 50.50 49.14 49.33 49.65 50.44 51.12 53.06 53.22 54.05 53.71 52.47 52.42 51.85 51.41 51.70 49.12 50.87 52.95 53.05 52.40 51.46 50.88
48.60 42.78 41.26 40.38 39.16 33.05 37.85 37.94 41.23 40.10 39.59 39.07 38.35 38.43 41.52 42.97 45.06 44.49 42.19 44.80 47.12 48.78 49.60 49.73 50.00 48.97 48.31 48.79 48.92 49.70 50.97 52.54 51.64 50.63 50.44 50.44 50.06 49.65 51.56 52.23 53.41 54.08 53.87 53.70 52.83 52.39 53.41 52.80 50.04 52.22 52.50 51.80 51.39 50.55
37.16 34.64 34.79 31.11 36.40 37.37 37.79 38.62 39.99 39.17 38.57 40.20 39.52 40.92 41.13 43.20 40.90 42.83 42.94 45.54 49.43 49.65 49.18 47.83 48.28 46.65 45.44 45.72 46.14 47.34 51.72 51.70 49.91 48.48 50.13 51.17 50.18 49.14 49.96 50.68 53.10 54.75 55.42 53.76 53.32 52.09 52.50 51.94 51.91 52.40 52.03 51.47 51.02 51.23
33.04 34.21 31.69 36.18 39.11 36.91 39.54 37.96 39.49 37.69 37.93 39.22 38.55 40.61 44.01 42.74 41.80 40.75 43.65 45.21 46.34 48.92 48.61 48.18 48.28 47.59 46.12 46.41 44.70 44.89 46.42 50.23 51.41 49.68 50.63 52.20 51.52 50.01 49.28 48.38 49.81 52.24 56.77 57.50 56.10 53.00 54.12 53.23 51.16 51.88 54.19 52.54 46.87 52.69
33.57 33.69 36.78 40.56 40.94 40.92 38.11 38.16 37.99 36.08 35.68 37.47 38.84 39.54 41.11 39.65 39.10 44.92 48.42 48.27 46.16 47.96 51.14 51.40 50.38 49.69 49.05 48.59 48.98 47.95 47.51 48.09 48.59 49.19 50.96 52.34 53.14 52.82 51.58 50.12 50.61 54.01 55.13 57.63 56.85 55.70 54.78 53.99 52.95 52.96 52.82 52.38 52.43 52.94
37.37 37.37 36.43 40.27 40.87 40.56 37.74 36.45 35.63 36.59 39.23 41.72 40.36 40.10 40.66 41.72 41.91 45.43 46.58 49.03 51.03 53.45 53.44 52.76 52.16 50.80 50.58 49.73 50.82 50.16 47.96 48.31 49.09 51.39 50.80 51.48 51.89 52.83 53.14 52.54 53.91 48.55 54.97 56.74 58.41 57.80 56.21 55.49 54.36 54.20 53.35 53.07 52.79 53.47
37.81 39.81 39.88 36.16 38.10 38.60 39.32 38.99 39.28 37.51 39.24 39.12 37.56 37.49 39.10 43.28 46.41 47.49 49.20 52.80 54.35 53.46 52.62 52.00 52.91 50.82 51.31 51.74 52.07 52.13 51.63 51.03 48.50 45.83 46.20 48.21 49.01 50.19 53.56 53.51 53.19 54.27 54.51 54.71 47.33 52.72 55.99 55.29 54.88 53.94 53.51 53.15 53.16 53.83
38.78 41.76 39.41 39.44 38.10 36.91 38.01 39.97 37.44 40.12 40.85 41.43 41.91 43.78 44.49 46.49 48.61 51.15 53.30 53.77 53.58 53.60 53.76 53.65 53.51 52.41 50.99 51.26 52.00 52.00 49.52 51.55 51.16 49.13 48.05 48.33 50.34 52.61 53.78 54.71 56.79 55.49 54.08 54.40 54.69 54.42 46.00 51.30 50.21 51.84 53.14 52.70 52.13 52.20
42.09 41.71 40.54 40.87 39.95 41.91 43.31 44.73 43.35 42.76 43.75 44.31 45.70 44.36 45.05 46.71 50.20 54.54 54.69 54.97 55.11 54.26 53.58 52.65 52.84 50.83 51.11 51.90 52.54 50.65 50.97 55.28 56.01 55.53 53.97 52.89 53.22 53.94 54.39 54.61 54.96 55.42 53.90 53.44 53.62 55.28 54.07 52.04 52.35 53.55 53.01 51.86 52.45 51.28
41.77 40.14 39.66 38.56 40.35 44.07 44.95 42.82 43.45 43.98 45.42 45.68 46.13 46.95 47.55 49.12 48.02 51.34 52.86 55.01 54.24 53.48 51.41 51.91 52.32 52.24 54.14 55.03 56.13 55.53 47.70 54.39 56.53 55.83 55.64 54.41 54.99 55.36 55.24 54.69 55.52 56.51 54.34 53.46 53.97 53.58 53.68 53.88 54.69 55.04 54.63 53.56 53.15 53.45
42.28 41.89 41.04 40.21 40.13 41.59 44.01 41.95 44.57 46.55 48.14 48.36 49.22 50.30 50.22 48.30 46.94 51.48 54.48 54.56 54.47 53.52 53.12 54.60 55.51 56.11 56.03 56.39 56.15 55.85 51.09 57.21 54.36 45.61 44.53 45.61 46.32 50.16 54.02 53.58 52.37 52.60 52.41 52.38 52.99 54.19 55.05 54.50 53.16 53.68 54.36 54.35 54.12 54.20
MSLP
1021.18 1020.86 1020.63 1020.18 1019.84 1019.39 1019.09 1018.77 1018.20 1017.71 1017.32 1017.00 1016.44 1015.97 1015.63 1015.40 1015.16 1015.22 1014.86 1014.44 1014.42 1013.38 1010.93 1009.43 1009.14 1008.60 1008.03 1007.61 1007.25 1005.78 1004.65 1003.90 1003.08 1002.79 1002.61 1001.96 1001.33 1000.56 1000.29 999.89 999.69 1000.18 1000.75 1001.07 1000.70 999.91 998.25 996.16 996.25 996.54 996.75 997.46 997.97 999.40
1020.62 1020.24 1020.02 1019.51 1019.11 1018.84 1018.62 1018.11 1017.95 1017.44 1017.00 1016.55 1016.05 1015.55 1015.26 1015.03 1014.83 1014.77 1014.63 1014.06 1013.79 1013.64 1010.66 1008.87 1008.09 1007.09 1006.63 1006.37 1006.72 1006.63 1006.06 1005.48 1004.13 1003.73 1003.48 1002.72 1001.91 1001.23 1000.74 1000.50 999.95 1000.07 999.55 999.97 999.68 998.73 997.31 996.55 996.07 995.88 996.25 997.14 998.51 999.22
1020.16 1019.74 1019.59 1019.34 1018.95 1018.69 1018.12 1017.59 1017.06 1016.77 1016.48 1016.16 1015.72 1015.18 1014.81 1014.55 1014.38 1014.42 1014.07 1013.85 1013.75 1012.65 1009.67 1008.19 1005.93 1004.68 1004.86 1005.15 1005.14 1006.58 1005.32 1004.32 1003.99 1003.66 1003.86 1003.37 1002.40 1001.37 1001.24 1000.74 1000.14 999.37 999.24 999.37 999.14 998.14 997.45 996.78 996.47 996.54 997.14 997.76 998.60 999.18
1019.94 1019.63 1019.25 1018.93 1018.55 1018.04 1017.90 1017.72 1017.18 1016.54 1016.05 1015.61 1015.14 1014.65 1014.32 1014.08 1013.82 1013.67 1013.53 1013.27 1013.35 1012.74 1011.09 1006.61 1004.52 1003.81 1002.81 1003.22 1003.91 1003.90 1003.50 1003.69 1003.89 1003.93 1003.86 1003.51 1002.68 1001.21 1001.02 1000.41 1000.26 999.55 999.34 999.16 998.98 998.20 997.80 997.53 997.20 997.46 998.10 998.51 999.19 999.98
1019.11 1018.81 1018.43 1018.09 1017.73 1017.37 1016.94 1016.65 1016.39 1016.04 1015.53 1015.10 1014.62 1014.03 1013.74 1013.42 1013.04 1012.78 1012.37 1011.90 1012.24 1012.47 1010.58 1007.39 1004.84 1002.37 1001.87 1002.04 1002.54 1003.25 1003.97 1004.27 1004.49 1004.40 1003.91 1003.42 1002.33 1001.63 1001.20 1000.59 999.88 999.25 998.90 998.79 998.48 998.09 998.00 997.85 997.85 998.02 998.53 999.10 999.64 1000.15
1018.57 1018.41 1018.19 1017.66 1017.37 1016.94 1016.50 1016.27 1015.74 1015.29 1014.91 1014.52 1013.99 1013.32 1012.95 1012.73 1012.49 1012.45 1011.64 1011.03 1011.18 1011.61 1011.08 1008.46 1004.41 1002.30 1001.62 1001.25 1001.99 1002.61 1003.10 1004.11 1004.20 1003.89 1003.48 1002.63 1001.82 1001.73 1001.51 1000.85 999.60 998.83 998.30 998.09 997.97 997.64 997.77 997.67 998.13 998.47 998.89 999.47 999.89 1000.23
1017.76 1017.62 1017.35 1017.21 1016.80 1016.63 1016.02 1015.37 1015.11 1014.60 1014.02 1013.44 1013.09 1012.42 1011.95 1011.87 1012.13 1012.00 1011.45 1011.21 1011.22 1011.48 1010.61 1008.24 1005.39 1002.41 1000.97 1000.74 1001.55 1002.39 1002.91 1003.01 1003.10 1003.28 1003.14 1002.63 1002.04 1001.67 1001.52 1000.54 999.26 998.62 998.21 998.00 997.70 997.63 998.08 998.26 998.81 999.06 999.39 999.87 1000.33 1001.01
1017.15 1017.01 1016.84 1016.50 1016.16 1015.69 1015.64 1015.01 1014.42 1013.94 1013.29 1012.55 1012.00 1011.34 1010.77 1010.52 1011.30 1011.29 1010.36 1010.18 1010.69 1010.77 1009.73 1008.33 1005.60 1003.40 1001.16 1000.88 1001.00 1001.08 1002.13 1002.51 1002.49 1002.33 1002.62 1002.58 1002.08 1001.78 1001.38 999.94 998.93 998.70 998.46 998.38 998.39 998.02 998.40 998.49 999.03 999.61 1000.37 1000.75 1001.39 1002.06
1016.58 1016.50 1016.22 1016.00 1015.80 1015.44 1014.93 1014.44 1014.02 1013.36 1012.59 1011.79 1011.05 1010.51 1010.82 1010.79 1010.69 1010.01 1009.74 1009.41 1009.73 1010.04 1009.21 1007.86 1006.27 1004.16 1002.05 1001.55 1000.99 1000.96 1000.98 1002.17 1001.91 1001.88 1001.98 1001.92 1002.10 1001.69 1000.13 999.28 999.05 998.87 998.73 999.25 999.21 998.99 999.34 999.72 1000.17 1000.30 1000.97 1001.62 1002.08 1002.77
1016.02 1015.83 1015.72 1015.48 1015.38 1015.06 1014.59 1014.02 1013.57 1013.11 1012.11 1011.23 1010.71 1010.79 1010.51 1010.39 1010.05 1009.75 1009.53 1009.46 1009.58 1009.03 1008.67 1007.74 1006.26 1004.91 1003.38 1002.52 1001.67 1001.33 1001.05 1001.31 1001.69 1001.07 1001.16 1001.51 1001.00 999.75 999.23 998.68 998.37 998.61 998.71 999.03 999.56 1000.05 1000.22 1000.55 1000.90 1001.30 1001.46 1001.62 1001.80 1002.44
1015.42 1015.12 1014.91 1014.82 1014.80 1014.64 1014.20 1013.87 1013.26 1012.91 1012.13 1012.03 1011.86 1011.58 1010.85 1010.13 1009.71 1009.23 1008.80 1008.66 1008.20 1007.74 1007.08 1006.06 1005.20 1004.38 1003.51 1003.47 1002.53 1001.92 1001.41 1001.29 1000.97 1000.78 1000.80 1000.93 1000.65 999.60 998.92 998.56 998.51 998.52 998.71 998.99 999.10 999.73 1000.18 1000.52 1001.26 1001.65 1002.10 1002.35 1002.67 1002.95
1014.60 1014.42 1014.13 1013.98 1014.02 1014.05 1013.81 1013.64 1013.28 1013.14 1013.13 1012.79 1012.59 1011.94 1011.24 1010.35 1009.24 1008.63 1007.59 1007.13 1006.85 1006.07 1005.50 1005.08 1004.32 1003.93 1003.55 1003.63 1003.05 1002.37 1001.97 1001.31 1000.88 1000.51 1000.50 1000.55 1000.10 999.60 999.21 998.93 999.02 999.12 999.22 999.76 1000.00 1000.49 1001.07 1001.47 1001.90 1002.26 1002.68 1003.05 1003.40 1003.53
1013.99 1013.63 1013.49 1013.46 1013.28 1013.20 1013.18 1013.17 1013.08 1012.80 1012.51 1012.35 1011.93 1011.41 1010.73 1009.61 1008.74 1007.58 1006.72 1006.10 1005.47 1005.10 1005.11 1004.78 1004.08 1003.69 1003.54 1003.06 1003.04 1002.91 1002.42 1001.25 1000.48 1000.46 1000.48 1000.45 1000.03 1000.02 999.97 999.64 999.85 999.95 1000.02 1000.41 1001.07 1001.48 1001.91 1002.37 1002.60 1002.90 1003.43 1003.63 1003.88 1004.18
1013.81 1013.46 1013.26 1013.14 1012.83 1012.70 1012.60 1012.62 1012.69 1012.60 1012.73 1012.20 1011.29 1010.65 1009.81 1008.48 1007.61 1006.66 1006.30 1005.80 1005.26 1005.09 1005.03 1004.86 1004.39 1003.81 1003.24 1003.24 1003.42 1002.42 1001.08 1000.62 1000.76 1000.92 1000.96 1000.89 1000.60 1000.80 1000.59 1000.37 1000.29 1001.04 1001.17 1001.57 1002.02 1002.42 1002.81 1003.21 1003.68 1003.85 1004.08 1004.24 1004.40 1004.65
1013.29 1013.02 1012.87 1012.62 1012.33 1012.26 1012.31 1012.38 1012.45 1012.62 1012.73 1011.89 1011.03 1009.88 1008.55 1007.46 1006.71 1006.37 1006.05 1005.54 1005.10 1004.97 1004.92 1004.46 1004.28 1003.98 1003.55 1003.31 1002.76 1001.84 1001.20 1001.02 1001.11 1001.01 1000.92 1000.94 1001.13 1001.35 1001.37 1001.37 1001.37 1001.79 1002.16 1002.64 1003.01 1003.34 1003.76 1004.00 1004.28 1004.53 1004.61 1004.65 1004.70 1004.77
1012.74 1012.63 1012.38 1012.26 1012.30 1012.28 1012.25 1012.19 1012.16 1012.29 1012.01 1011.36 1010.55 1009.52 1008.23 1007.56 1006.91 1006.38 1005.97 1005.57 1004.98 1004.84 1004.41 1004.35 1004.07 1003.67 1003.32 1003.15 1002.43 1001.97 1001.60 1001.48 1001.57 1001.22 1001.33 1001.47 1001.86 1001.98 1002.13 1002.39 1002.53 1002.74 1002.86 1003.27 1003.53 1003.76 1004.03 1004.34 1004.60 1004.77 1004.88 1004.98 1005.08 1005.13
1012.51 1012.42 1012.15 1012.26 1012.28 1012.00 1011.73 1012.07 1011.90 1011.57 1011.09 1010.42 1009.62 1008.91 1008.63 1008.02 1007.30 1006.59 1006.05 1005.61 1005.18 1004.89 1004.69 1004.41 1004.05 1003.79 1003.44 1003.12 1002.70 1002.51 1002.52 1002.40 1002.31 1001.91 1002.02 1001.94 1002.23 1002.63 1002.88 1003.03 1003.14 1003.28 1003.49 1003.73 1004.01 1004.24 1004.43 1004.61 1004.79 1005.03 1005.17 1005.08 1005.02 1004.97
1012.41 1012.09 1012.13 1012.26 1012.16 1011.85 1011.55 1011.48 1011.21 1010.62 1010.06 1009.42 1009.42 1008.69 1008.20 1007.50 1006.87 1006.31 1005.88 1005.37 1005.24 1004.89 1004.58 1004.53 1004.29 1004.01 1003.86 1003.72 1003.53 1003.44 1003.08 1002.57 1002.50 1002.41 1002.36 1002.54 1002.60 1002.95 1003.01 1003.25 1003.40 1003.58 1003.78 1003.95 1004.10 1004.30 1004.48 1004.75 1005.00 1005.13 1005.09 1005.07 1005.03 1004.91
1012.07 1012.04 1012.04 1012.12 1012.29 1012.33 1011.84 1010.91 1010.76 1010.28 1009.29 1008.72 1008.50 1008.17 1007.70 1006.96 1006.26 1005.84 1005.56 1005.19 1005.08 1004.90 1004.78 1004.54 1004.42 1004.17 1004.01 1003.97 1003.92 1003.75 1003.21 1002.98 1002.82 1002.54 1002.44 1002.48 1002.75 1002.97 1003.19 1003.32 1003.55 1003.74 1003.93 1004.07 1004.18 1004.37 1004.55 1004.68 1004.80 1004.92 1004.98 1004.98 1005.10 1005.02
1011.91 1011.69 1011.61 1011.78 1012.05 1012.13 1011.64 1010.73 1010.05 1009.94 1009.56 1008.67 1008.28 1007.70 1007.21 1006.58 1005.83 1005.50 1005.27 1005.15 1005.17 1005.06 1005.09 1004.80 1004.38 1003.76 1003.49 1003.87 1003.84 1003.63 1003.08 1002.65 1002.58 1002.69 1002.85 1002.74 1002.79 1002.92 1003.17 1003.40 1003.70 1003.90 1004.08 1004.17 1004.22 1004.35 1004.63 1004.74 1004.70 1004.84 1004.95 1004.97 1005.09 1005.04
1011.81 1011.49 1011.36 1011.62 1011.99 1012.04 1011.69 1010.93 1010.27 1009.70 1009.32 1008.86 1007.85 1007.30 1006.62 1005.92 1005.57 1005.31 1005.13 1004.90 1005.28 1005.05 1004.89 1004.44 1003.91 1003.40 1003.23 1003.21 1003.02 1003.08 1002.84 1002.69 1002.57 1002.57 1002.75 1003.01 1003.00 1003.08 1003.27 1003.40 1003.58 1003.83 1004.05 1004.28 1004.40 1004.36 1004.57 1004.70 1004.69 1004.70 1004.73 1004.92 1004.85 1004.78
1011.67 1011.31 1011.54 1011.62 1011.63 1011.46 1011.31 1010.84 1010.52 1009.88 1009.48 1008.44 1007.66 1006.78 1006.22 1005.67 1005.14 1004.83 1004.60 1004.83 1004.71 1004.31 1003.95 1003.78 1003.59 1003.37 1003.24 1003.03 1002.85 1002.61 1002.44 1002.48 1002.54 1002.67 1002.80 1002.86 1003.13 1003.21 1003.37 1003.42 1003.62 1003.81 1003.84 1003.90 1003.95 1003.92 1003.96 1004.05 1004.16 1004.42 1004.50 1004.62 1004.67 1004.68
1011.60 1011.51 1011.57 1011.49 1011.37 1011.24 1010.85 1010.45 1010.27 1009.42 1008.98 1008.00 1007.07 1006.46 1005.74 1005.15 1004.49 1004.30 1004.31 1004.14 1003.83 1003.43 1003.25 1003.23 1003.11 1002.90 1003.00 1002.74 1002.63 1002.58 1002.52 1002.61 1002.90 1002.94 1002.87 1002.91 1002.92 1003.00 1003.04 1003.18 1003.15 1003.36 1003.56 1003.36 1003.25 1003.21 1003.20 1003.24 1003.58 1003.97 1004.21 1004.38 1004.52 1004.67
1011.55 1011.71 1011.54 1011.32 1011.22 1011.02 1010.54 1010.04 1009.36 1008.92 1008.16 1007.51 1006.81 1006.11 1005.33 1004.83 1004.36 1004.23 1004.23 1004.17 1004.05 1003.56 1003.29 1003.17 1003.07 1003.04 1003.00 1002.87 1002.91 1002.84 1002.66 1002.65 1002.76 1002.89 1002.96 1003.02 1003.08 1003.04 1002.88 1002.88 1002.81 1002.79 1002.82 1002.75 1002.81 1002.72 1002.70 1002.87 1003.11 1003.64 1003.80 1003.98 1004.23 1004.35
1011.96 1011.75 1011.76 1011.34 1010.98 1010.72 1010.08 1009.29 1008.66 1008.29 1007.76 1006.89 1006.31 1005.75 1005.10 1004.76 1004.56 1004.44 1004.65 1004.18 1003.74 1003.57 1003.22 1003.02 1002.90 1002.98 1003.18 1003.08 1003.03 1002.91 1002.65 1002.70 1002.89 1002.96 1002.68 1002.86 1002.93 1002.93 1002.79 1002.71 1002.55 1002.24 1002.15 1002.44 1002.39 1002.24 1002.26 1002.49 1002.84 1003.17 1003.33 1003.62 1003.83 1003.85
1011.57 1011.29 1011.29 1010.49 1010.20 1010.14 1009.51 1009.02 1008.52 1008.07 1007.49 1006.70 1006.03 1005.41 1004.93 1004.75 1004.57 1004.61 1004.12 1003.85 1003.66 1003.43 1003.14 1003.03 1002.89 1002.86 1002.78 1002.76 1002.76 1002.77 1002.70 1002.47 1002.68 1002.86 1002.57 1002.50 1002.53 1002.67 1002.66 1002.61 1002.39 1002.02 1001.76 1001.81 1001.90 1001.93 1001.99 1002.28 1002.67 1002.83 1002.93 1003.06 1003.13 1003.38
1011.21 1010.68 1010.25 1009.84 1009.59 1009.34 1009.08 1008.59 1008.17 1008.04 1007.39 1006.61 1005.94 1005.37 1004.97 1004.55 1004.03 1003.76 1003.43 1003.44 1003.57 1003.24 1002.70 1002.29 1002.10 1002.20 1002.13 1002.09 1002.07 1002.13 1002.15 1002.24 1002.28 1002.17 1001.98 1001.97 1001.99 1001.96 1001.98 1001.81 1001.55 1001.18 1001.17 1001.40 1001.44 1001.38 1001.65 1002.00 1002.20 1002.21 1002.12 1002.16 1002.39 1002.48
1010.67 1010.14 1009.81 1009.50 1009.38 1009.19 1009.02 1008.61 1008.11 1007.57 1006.89 1006.27 1005.89 1005.44 1004.98 1004.31 1003.85 1003.49 1003.26 1002.93 1002.59 1002.30 1002.02 1001.58 1001.37 1001.40 1001.40 1001.42 1001.47 1001.52 1001.66 1001.66 1001.72 1001.70 1001.65 1001.53 1001.27 1001.11 1001.01 1000.86 1000.63 1000.57 1000.69 1000.68 1000.68 1000.44 1000.93 1001.54 1001.62 1001.45 1001.52 1001.52 1001.61 1001.28
1010.08 1009.44 1009.27 1009.18 1008.84 1008.57 1008.16 1007.93 1007.45 1007.11 1006.85 1006.66 1006.34 1005.68 1005.06 1004.32 1003.55 1003.02 1002.71 1002.50 1002.17 1001.93 1001.76 1001.38 1000.96 1000.83 1000.78 1000.72 1000.71 1000.72 1000.84 1001.13 1001.52 1001.58 1001.55 1001.54 1001.37 1001.07 1000.70 1000.53 1000.51 1000.45 1000.51 1000.78 1000.84 1000.64 1001.16 1001.58 1001.19 1000.97 1001.03 1001.12 1001.05 1001.17
1009.31 1008.84 1008.97 1008.78 1008.50 1007.87 1007.28 1006.92 1006.89 1006.56 1006.34 1006.26 1005.89 1005.42 1005.02 1004.21 1002.41 1002.77 1002.61 1002.19 1001.76 1001.46 1001.36 1001.18 1000.96 1000.96 1000.85 1000.71 1000.53 1000.44 1000.49 1000.63 1000.87 1001.23 1001.32 1001.34 1001.21 1000.92 1000.69 1000.57 1000.45 1000.14 1000.24 1000.52 1000.95 1001.29 1001.27 1001.36 1000.77 1000.98 1000.98 1000.97 1000.96 1000.96
1008.73 1008.57 1008.60 1008.38 1007.88 1007.10 1006.59 1006.31 1006.14 1005.98 1005.80 1005.42 1005.06 1005.20 1004.66 1004.18 1002.90 1002.50 1002.13 1001.81 1001.59 1001.38 1001.16 1001.03 1000.87 1000.86 1000.83 1000.78 1000.68 1000.55 1000.54 1000.38 1000.34 1000.45 1000.64 1000.75 1000.80 1000.73 1000.60 1000.58 1000.53 1000.51 1000.32 1000.28 1000.46 1000.51 1000.56 1000.68 1000.64 1000.68 1000.61 1000.53 1000.54 1000.82
1008.30 1008.38 1008.44 1008.19 1007.47 1006.63 1006.33 1006.09 1005.90 1005.65 1005.08 1004.63 1004.30 1004.18 1004.24 1004.07 1003.37 1002.61 1002.03 1001.88 1001.18 1000.98 1001.04 1001.09 1000.97 1000.75 1000.64 1000.72 1000.37 1000.27 1000.26 1000.31 1000.22 1000.19 1000.25 1000.28 1000.29 1000.36 1000.29 1000.08 999.93 999.68 999.71 999.96 1000.07 1000.04 1000.02 1000.00 1000.02 1000.11 1000.12 1000.12 1000.28 1000.45
1007.94 1008.04 1008.10 1007.99 1007.49 1006.76 1006.12 1006.07 1005.60 1005.18 1004.88 1004.48 1003.98 1003.42 1003.13 1003.20 1002.90 1002.24 1002.04 1001.63 1000.94 1000.80 1000.72 1000.49 1000.58 1000.43 1000.58 1000.58 1000.22 1000.15 1000.07 999.93 999.91 999.88 999.93 1000.02 1000.14 1000.07 999.76 999.67 999.61 999.58 999.56 999.55 999.48 999.56 999.62 999.62 999.83 999.92 1000.02 1000.04 1000.19 1000.38
Wind_Speed
15 15 15 15 16 15 15 16 16 18 18 17 18 17 17 16 13 5 4 2 1 4 12 11 8 8 3 4 4 5 6 4 5 5 2 4 3 5 3 4 6 7 5 5 3 2 5 6 3 9 9 2 9 8
13 14 15 15 15 15 15 16 16 16 17 18 17 17 17 15 13 7 3 2 1 5 10 7 15 18 20 12 5 2 3 2 4 2 1 1 2 2 5 2 2 3 8 7 10 9 5 5 5 2 4 8 5 9
14 14 15 15 15 16 16 16 16 16 17 19 19 17 17 16 13 6 3 2 2 4 9 3 11 11 14 24 17 5 5 5 2 4 3 3 4 3 4 4 1 2 3 3 4 3 3 3 4 5 5 6 5 5
15 14 15 15 15 15 16 18 17 17 18 20 20 19 17 15 14 11 4 2 2 3 6 10 5 9 6 10 20 25 12 3 1 2 1 1 2 1 4 3 4 5 2 4 2 3 6 7 3 7 5 9 11 7
13 14 14 14 15 15 16 16 16 18 19 21 22 20 19 17 16 9 7 7 8 4 5 10 16 9 6 10 17 19 17 7 1 2 1 3 3 2 2 2 3 1 3 4 4 5 4 5 3 6 10 8 13 13
13 13 14 14 15 15 16 17 16 18 20 22 22 21 19 16 9 2 4 1 6 5 4 7 5 6 5 8 13 16 13 3 3 4 4 3 4 3 2 2 6 5 3 5 3 4 4 4 6 3 7 11 11 13
13 13 13 14 14 15 15 15 17 18 20 22 23 22 19 12 3 4 3 1 2 2 4 6 6 6 6 5 4 4 6 4 4 3 2 2 3 3 2 3 6 4 3 3 2 2 10 7 3 6 6 7 6 6
13 14 14 14 15 13 15 16 17 19 21 24 25 22 14 2 4 3 4 9 5 4 4 4 7 5 4 2 3 4 5 3 3 4 2 3 3 2 2 7 4 3 3 6 7 8 5 7 8 8 7 11 11 8
13 14 14 14 15 14 15 16 17 18 22 24 25 7 2 1 2 1 12 6 3 2 3 3 4 5 7 4 2 2 3 3 1 4 3 5 2 5 9 8 5 7 8 8 4 8 9 9 6 8 9 7 10 7
13 14 14 13 14 14 15 15 16 18 22 22 4 2 2 1 12 8 1 3 3 3 3 4 3 6 1 3 4 0 1 3 3 6 4 4 5 6 6 8 8 10 8 9 8 4 4 5 4 6 5 7 12 13
14 14 13 13 13 14 14 15 14 15 9 5 5 3 4 11 2 2 3 4 4 4 5 5 5 3 2 1 4 2 1 1 2 2 5 3 4 5 5 6 7 5 8 4 7 5 4 6 7 7 6 6 7 10
13 14 12 11 12 14 13 13 11 3 1 3 5 4 3 3 2 3 3 3 4 4 2 2 4 4 2 2 2 3 2 2 2 2 2 2 4 3 3 8 8 8 12 11 9 11 9 9 6 7 6 6 5 5
14 12 11 11 12 12 12 11 10 9 7 2 2 3 2 2 1 5 5 2 2 3 3 3 4 2 1 1 2 1 5 5 2 2 2 2 2 4 2 9 10 10 14 15 13 11 10 9 8 7 7 5 5 2
14 11 10 12 12 14 11 9 5 5 1 3 3 4 4 4 4 2 2 2 3 1 3 3 3 2 1 3 2 4 4 1 2 1 4 2 2 2 1 3 13 10 12 13 11 10 10 10 8 7 7 5 5 2
13 10 11 12 12 4 0 3 4 0 1 3 3 4 5 4 2 1 4 3 2 2 3 2 2 1 1 4 4 3 1 3 4 3 1 2 3 5 6 5 10 10 9 8 7 8 8 7 7 6 4 4 4 3
9 10 4 7 3 5 8 6 0 3 3 3 4 4 4 3 3 3 3 4 2 3 1 1 2 1 1 2 2 2 3 1 2 2 2 3 4 6 7 5 6 6 7 7 6 6 6 6 6 4 2 3 2 2
2 3 0 2 6 11 10 3 2 5 4 4 4 4 4 6 6 4 2 3 3 3 2 2 3 2 2 2 0 3 2 3 2 2 1 4 6 6 5 5 6 6 7 7 5 5 4 4 5 3 2 2 3 2
3 1 3 2 6 5 2 3 3 4 6 5 2 4 3 4 3 4 4 2 2 3 2 1 2 2 1 3 3 3 3 3 2 1 3 5 7 6 5 6 6 6 6 5 4 3 3 5 4 2 2 1 1 2
2 3 6 6 2 2 2 3 3 3 4 2 3 3 3 4 4 4 3 3 2 2 2 2 1 2 2 1 2 3 4 3 2 2 1 5 5 6 5 5 5 4 4 3 2 2 2 3 2 3 2 1 2 1
9 12 12 8 4 2 3 4 1 3 3 4 3 4 3 4 3 3 3 2 0 1 2 2 3 2 3 3 3 2 6 6 2 3 3 1 2 4 5 4 3 3 2 2 2 2 2 1 1 2 3 3 2 1
4 2 3 4 2 2 3 3 3 3 4 3 3 2 4 2 3 2 2 3 2 3 3 4 3 3 0 3 4 3 2 1 1 2 3 1 1 2 1 1 3 3 2 1 2 2 4 3 2 3 3 3 3 3
3 2 1 2 2 3 3 3 3 3 2 4 4 2 3 2 2 3 2 2 3 5 5 4 3 2 3 4 4 3 2 3 2 1 3 4 2 1 2 3 3 3 3 3 4 5 4 4 4 3 3 3 2 2
5 0 1 2 3 1 6 1 2 3 3 4 3 3 2 2 3 1 1 3 3 2 3 3 4 5 5 5 3 4 2 1 2 2 2 2 1 2 2 2 3 4 2 3 3 4 5 5 6 5 4 3 3 1
1 1 2 2 3 4 2 3 3 3 3 3 2 3 3 3 3 1 1 2 3 3 2 1 1 1 2 2 0 2 3 1 1 0 1 0 2 3 2 3 3 4 4 2 3 3 4 4 6 5 5 4 4 4
1 3 3 3 3 2 3 3 3 1 3 3 2 2 3 3 2 3 1 3 2 2 3 2 1 2 3 2 3 3 2 2 2 2 3 2 1 2 3 1 3 4 3 3 2 2 2 4 5 5 4 4 6 7
2 4 5 2 1 1 3 2 2 3 3 3 2 3 2 1 1 3 3 2 2 2 3 4 4 3 4 4 4 3 4 3 3 2 4 3 4 4 4 4 3 4 4 3 3 3 4 3 3 6 5 7 10 6
2 3 4 4 2 3 3 3 3 1 3 2 3 2 2 2 2 2 2 2 2 4 5 5 4 4 7 4 3 4 4 4 5 5 4 3 4 4 5 5 6 5 5 6 4 4 3 2 5 7 8 5 6 7
4 2 2 2 2 3 3 3 2 3 3 3 3 2 3 3 2 2 3 3 6 6 6 4 4 4 5 4 4 4 4 4 4 4 3 4 5 4 5 5 4 8 5 6 4 3 4 3 8 8 8 7 7 6
3 3 1 5 4 4 4 4 3 3 2 2 2 3 3 3 4 8 8 3 4 4 5 5 4 2 3 4 5 5 4 3 3 3 3 3 3 3 2 2 4 4 5 4 7 6 7 7 3 1 4 4 5 3
3 2 1 2 3 3 4 4 3 3 3 4 3 3 3 5 9 5 5 4 5 5 4 4 3 2 3 3 3 3 1 4 4 5 4 4 4 2 3 2 2 1 3 4 4 5 7 7 3 2 2 2 3 4
2 1 2 3 3 4 4 4 3 3 3 4 4 3 6 4 4 1 2 2 3 3 3 3 2 3 2 2 3 3 3 2 2 5 5 4 3 3 4 3 1 2 2 3 4 5 4 4 3 2 5 6 7 5
2 3 2 3 4 3 3 1 2 2 2 2 2 3 3 3 4 3 2 2 4 3 3 3 3 3 1 1 2 2 5 2 1 1 5 4 4 3 3 3 3 3 3 3 4 6 5 6 4 5 5 5 7 8
1 2 2 3 3 3 1 1 2 3 2 5 4 3 2 3 2 2 1 4 4 3 4 4 2 4 3 4 5 3 4 2 1 4 4 6 6 4 3 3 4 4 5 5 5 4 7 7 3 6 6 8 8 7
Wind_Direction
302 300 301 305 308 309 313 316 315 323 324 323 328 330 330 331 335 347 277 233 307 284 280 249 244 226 261 193 201 307 343 333 348 43 112 203 148 213 129 195 179 181 163 216 104 110 264 193 130 156 199 39 110 119
289 295 295 295 300 303 307 307 315 319 319 317 319 323 323 321 321 336 260 220 290 238 263 300 253 247 226 210 140 290 233 294 241 43 324 308 215 127 155 255 35 263 186 189 171 213 248 273 220 113 127 128 145 131
290 288 292 298 299 302 302 304 309 314 314 314 313 316 314 312 308 291 264 250 262 265 279 261 243 250 226 230 226 195 259 219 258 181 186 253 250 125 147 228 246 276 157 159 89 288 355 55 46 86 111 110 124 133
285 291 292 295 295 299 301 305 311 312 309 307 312 313 311 304 300 296 248 189 238 282 277 282 298 265 216 200 194 206 223 17 58 84 137 221 247 170 196 190 157 216 0 164 231 31 62 13 133 140 85 97 100 105
279 283 286 288 289 294 298 303 309 310 309 310 308 310 307 300 294 284 254 228 208 223 285 290 295 264 220 187 191 202 214 227 47 319 345 245 262 48 309 71 327 180 212 118 199 217 142 202 157 139 135 144 142 136
281 286 289 289 290 294 301 307 306 310 310 305 303 300 296 297 304 303 300 131 196 187 280 289 295 278 295 188 181 185 194 152 195 179 225 269 258 105 104 152 264 276 267 179 181 165 195 104 97 80 131 153 159 156
278 280 283 287 290 295 299 300 302 306 306 304 302 301 297 282 201 207 219 50 73 173 250 286 290 274 290 139 140 135 160 186 160 204 220 209 292 78 96 169 238 238 271 53 44 165 64 44 100 71 124 132 112 96
277 279 282 286 288 289 293 299 303 308 307 306 306 308 310 184 154 264 242 244 177 236 250 283 276 305 5 279 132 158 128 153 227 192 91 179 343 55 278 248 252 236 86 47 52 60 83 121 91 88 85 110 107 120
282 284 283 284 288 292 293 299 304 311 309 308 309 309 126 142 189 217 319 338 168 248 280 266 304 312 347 327 296 33 124 133 236 188 218 115 186 205 216 221 193 186 168 159 93 85 82 81 74 100 123 119 126 143
284 285 285 286 290 293 300 303 308 314 311 312 7 15 248 57 308 303 144 154 177 218 236 240 258 257 341 335 302 49 32 173 176 230 115 155 239 247 236 235 187 183 159 145 110 100 94 75 106 133 181 160 159 152
283 283 282 287 292 295 302 305 314 327 338 10 8 309 300 307 274 211 219 204 178 233 201 233 222 272 324 190 288 11 226 358 204 188 154 204 260 253 306 193 189 157 149 121 121 97 100 137 158 145 127 120 134 144
285 283 279 284 288 291 301 305 317 351 267 245 280 280 282 286 242 251 235 193 210 238 190 249 258 207 236 200 266 342 334 1 229 317 159 187 255 334 39 113 102 117 109 90 87 94 83 83 90 95 98 107 123 134
283 282 277 280 286 287 292 292 304 288 304 271 220 248 235 251 293 239 204 221 300 358 21 321 317 195 187 18 62 184 225 236 300 46 200 213 325 35 34 109 90 89 96 95 89 85 85 78 71 84 89 70 75 60
292 290 288 286 286 287 284 275 298 337 355 273 269 285 227 222 241 280 316 256 278 341 326 255 245 294 11 67 309 260 233 103 23 346 229 198 230 77 78 88 110 108 105 103 101 97 89 86 77 73 82 94 119 160
292 290 290 291 277 280 212 287 290 239 252 270 256 244 235 267 240 266 280 271 255 277 274 337 291 175 225 202 219 279 157 199 205 233 231 192 154 149 93 90 103 104 102 99 105 107 112 111 103 94 85 88 87 64
297 300 245 228 314 331 312 314 306 163 237 239 238 275 276 263 347 335 327 304 290 275 248 196 272 299 345 314 255 159 298 251 292 285 120 110 82 75 91 96 112 116 107 107 106 109 110 117 128 130 106 106 123 161
284 239 63 65 330 306 283 185 193 211 244 231 238 236 255 266 256 250 234 271 286 324 346 301 338 332 270 278 22 16 357 297 300 311 356 124 126 131 131 118 112 113 115 123 122 125 130 131 123 117 96 325 328 313
238 318 168 13 342 305 261 202 247 248 240 224 228 253 225 240 260 272 270 283 320 321 340 358 280 340 27 357 6 346 307 300 258 184 102 149 128 136 137 145 131 130 128 128 131 134 114 135 144 167 133 309 20 17
267 304 299 309 326 319 291 228 206 265 260 250 244 259 241 254 253 248 267 278 233 259 302 9 335 238 210 101 320 310 317 337 338 344 84 100 136 152 153 138 131 116 126 125 117 155 157 162 179 169 179 131 92 358
279 277 272 257 182 256 263 263 198 252 270 262 285 265 251 242 251 244 250 250 0 25 334 254 227 222 154 174 230 248 280 291 5 52 353 29 121 144 145 139 142 142 126 101 86 99 100 288 277 204 182 170 140 257
314 256 89 121 169 223 270 288 281 260 297 283 270 274 261 281 247 225 245 155 129 211 228 232 244 256 94 229 211 184 276 328 281 168 195 182 264 136 137 108 130 121 132 160 241 245 180 213 243 193 156 189 218 211
265 324 126 202 239 214 243 233 219 275 288 265 300 228 274 278 256 228 166 122 219 223 197 198 232 225 294 296 268 264 285 19 323 348 81 107 106 149 210 185 146 193 210 231 229 244 226 214 189 201 189 198 212 194
320 168 246 239 257 27 260 45 253 253 261 268 300 287 259 277 244 135 221 204 237 242 236 211 230 221 222 258 265 288 290 228 284 283 305 313 283 267 230 195 196 202 219 273 227 247 233 187 190 179 206 176 183 190
192 268 251 250 189 270 303 263 224 263 273 272 259 278 275 254 325 149 279 359 304 320 17 51 62 39 358 17 98 266 275 149 128 214 210 10 326 296 231 236 224 211 197 204 258 264 219 182 164 185 195 172 192 216
34 278 119 291 291 268 263 266 246 292 277 266 274 301 286 1 1 45 296 226 263 222 227 208 182 170 194 238 268 274 282 180 189 238 280 180 237 313 304 247 264 235 189 184 246 281 247 161 173 208 194 201 210 212
250 240 164 268 37 220 290 285 299 255 274 281 280 292 309 338 142 201 246 233 249 237 247 233 235 264 263 218 246 252 250 221 155 215 272 230 210 200 224 224 237 271 214 207 184 126 89 105 225 228 205 213 229 228
274 275 229 228 235 262 290 283 265 232 266 263 274 298 293 269 254 209 296 242 259 277 280 268 216 213 244 236 238 251 237 204 204 219 237 241 231 216 206 202 214 228 173 179 207 129 96 341 268 244 233 211 212 211
248 263 211 214 189 231 268 270 251 253 280 330 345 295 318 288 272 270 245 228 246 279 282 276 238 224 229 219 230 230 244 233 255 274 272 272 243 237 230 231 216 205 182 179 163 66 1 310 273 237 217 205 227 230
253 252 259 277 245 235 217 224 246 244 225 70 340 285 275 293 273 300 310 276 269 269 286 299 302 258 244 235 234 233 212 179 172 232 246 276 318 294 314 230 189 194 212 205 199 211 223 250 294 225 226 227 230 210
258 194 267 268 267 254 242 196 230 255 224 208 219 308 334 284 283 324 293 310 313 309 288 273 271 309 323 340 330 6 221 180 182 174 200 235 245 311 329 343 297 121 194 197 189 205 231 254 280 138 154 196 211 197
268 224 240 236 257 247 251 283 279 268 253 243 211 180 257 288 324 327 239 251 301 331 341 345 6 67 78 46 35 39 29 355 222 213 203 231 255 265 262 258 210 246 218 203 214 217 220 224 205 263 278 249 225 196
218 201 207 274 275 287 311 253 273 270 274 244 253 181 186 218 280 286 272 302 310 352 303 299 295 276 230 264 236 213 193 228 244 285 207 204 222 247 263 293 309 333 3 323 262 242 238 232 224 221 228 200 152 151
145 177 220 278 284 285 257 329 255 276 21 344 329 282 222 185 284 275 260 248 247 248 280 290 254 249 237 215 225 227 224 238 255 303 292 272 266 288 305 335 329 313 285 269 243 217 228 252 210 201 200 181 185 203